ASIASAT 8 (AMOS-7)

Last updated on Mon Oct 14 2024 00:02:39 GMT+0000 (Coordinated Universal Time)

1 40107U 14046A 24287.33427983 -.00000034 00000+0 00000+0 0 9995 2 40107 0.0578 67.6764 0002276 143.3152 287.8636 1.00271750 96015
UTC large
Height (km)
Speed (km/s)
/
Latitude / Longitude
Inclination (degrees)
Orbital Period (minutes)
Azimuth
Elevation
Range (km)
Doppler Factor

Next 0 passes for location: London (51.5072 / 0.1276)

Sorry there are no passes over London.